Regional Weather Roundup
Issued by NWS Cleveland, OH

Home | Current Version | Previous Version | Text Only | Print | Product List | Glossary Off
Versions: 1 2 3 4 5 6 7 8 9 10 11 12 13 14 15 16 17 18 19 20 21 22 23 24 25 26 27 28 29 30 31 32 33 34 35 36 37 38 39 40 41 42 43 44 45 46 47 48 49 50

000
ASUS41 KCLE 282110
RWRCLE
OHIO REGIONAL WEATHER ROUNDUP
NATIONAL WEATHER SERVICE WILMINGTON, OH
500 PM EDT SAT MAY 28 2016

NOTE: "FAIR" INDICATES FEW OR NO CLOUDS BELOW 12,000 FEET WITH NO
SIGNIFICANT WEATHER AND/OR OBSTRUCTIONS TO VISIBILITY.

OHZ001>008-015>018-024>027-034-035-043-044-282200-
   NORTHWEST OHIO

CITY           SKY/WX    TMP DP  RH WIND       PRES   REMARKS
DEFIANCE       FAIR      84  62  47 S20       30.01S
FINDLAY        FAIR      75  64  68 S8        30.05F
TOLEDO EXPRESS PTSUNNY   83  59  44 SW15G23   30.01S
TOLEDO EXEC    PTSUNNY   79  63  57 SW22G31   30.03R
LIMA           FAIR      74  71  91 S8        30.05F
$$

OHZ009>014-019>023-028>033-038-089-282200-
   NORTHEAST OHIO

CITY           SKY/WX    TMP DP  RH WIND       PRES   REMARKS
CLE-HOPKINS    FAIR      88  63  43 S9        30.05F
CLE-LAKEFRONT  FAIR      76  66  71 NE10      30.03S
CUY CO. ARPT   PTSUNNY   90  68  48 N12       30.06S HX  93
LORAIN-ELYRIA  FAIR      80  64  58 N12G24    30.04S
ASHTABULA      FAIR      75  71  87 E3        30.08F
AKRON-CANTON   FAIR      87  65  47 SW10      30.07F
WOOSTER        FAIR      87  64  46 SW8       30.07S
MANSFIELD      LGT RAIN  71  66  84 SW13      30.12R
YOUNGSTOWN     FAIR      85  63  47 SW8       30.08S
$$

OHZ042-051>053-060>062-070>072-077>081-282200-
  SOUTHWEST OHIO

CITY           SKY/WX    TMP DP  RH WIND       PRES   REMARKS
CINC-COVINGTON PTSUNNY   83  64  52 S9        30.07F
CINC-LUNKEN    FAIR      83  66  56 SW9       30.06S
HAMILTON       PTSUNNY   85  66  53 S6        30.06F
DAYTON         PTSUNNY   79  66  64 S9        30.08S
WRIGHT-PAT AFB PTSUNNY   81  68  63 SW8       30.06S THUNDER
DAYTON GENERAL FAIR      83  64  52 S9        30.06F
WILMINGTON     TSTM      74  65  73 W16       30.08S
$$

OHZ036-037-039>041-045>050-054>059-063>069-073>076-082>088-282200-
  CENTRAL AND SOUTHEAST OHIO

CITY           SKY/WX    TMP DP  RH WIND       PRES   REMARKS
COLUMBUS       CLOUDY    70  66  87 W6        30.09F
OSU AIRPORT    TSTM      70  65  84 VRB3      30.09R
BOLTON FIELD   CLOUDY    72  66  83 W3        30.09F
RICKENBACK AFB LGT RAIN  74  65  73 CALM      30.08R
NEWARK         FAIR      86  64  47 S6        30.06S
MARION         FAIR      78  66  66 W8        30.10S
LANCASTER      PTSUNNY   76  64  66 W10G17    30.09R
ZANESVILLE     FAIR      87  65  47 SW9       30.07F
NEW PHILLY     FAIR      88  63  43 S8        30.07F
$$




USA.gov is the U.S. government's official web portal to all federal, state and local government web resources and services.